Theta_e
313 312 312 314 313 314 314 315 315 315 315 315 315 315 314 315 317 324 323 319 318 316 316 320 321 321 322 324 328 328 337 340 341 343 342 340 339 340 339 342 343 342 344 343 347
310 311 311 312 313 314 314 315 315 315 315 315 315 315 315 315 318 323 321 321 317 314 319 321 322 322 323 326 327 331 338 338 336 335 334 331 330 330 339 342 344 344 345 346 346
309 309 310 310 310 311 312 313 315 315 315 315 316 316 316 315 320 323 320 323 317 318 318 320 321 322 324 326 328 331 338 333 330 329 328 329 329 327 333 338 340 345 346 347 346
311 310 309 309 309 310 310 311 312 314 315 315 316 316 316 315 321 316 316 323 320 316 319 319 320 321 325 327 328 330 331 331 330 328 328 330 327 328 331 337 340 343 346 347 346
314 313 312 311 309 309 310 310 311 311 313 314 315 315 316 318 318 314 318 323 323 321 320 318 319 321 325 325 327 328 330 330 329 328 329 328 328 331 333 339 342 343 346 346 345
320 320 315 313 312 311 310 310 310 310 311 312 314 315 316 319 317 314 319 323 324 322 321 320 319 320 323 324 326 326 328 329 327 328 329 329 330 335 341 341 343 344 345 345 344
307 310 320 319 315 313 312 311 310 310 311 311 313 314 317 319 316 315 315 318 320 321 321 320 320 320 322 324 323 324 325 327 328 328 330 332 334 340 342 342 343 344 345 343 343
305 306 307 317 320 318 315 312 311 311 311 311 312 314 317 318 315 315 316 317 318 317 318 318 322 320 321 321 322 324 325 330 332 328 331 334 336 338 340 342 343 343 344 342 341
306 305 306 308 316 320 319 316 312 311 311 311 313 316 318 318 316 319 319 319 318 315 318 318 322 322 321 323 324 324 328 330 330 328 334 335 335 334 338 339 342 344 343 343 342
308 306 305 306 308 318 320 317 313 311 312 312 315 318 318 319 318 318 318 319 319 316 318 320 323 323 323 323 324 325 325 329 331 330 333 335 334 330 328 335 338 342 344 343 342
308 308 306 305 308 314 320 315 316 317 317 317 319 318 318 317 317 318 320 319 320 317 321 322 323 323 324 323 324 324 326 328 330 328 328 332 330 329 332 334 338 341 343 344 343
308 308 308 305 308 316 315 315 311 314 315 315 316 317 318 318 318 318 319 322 322 321 321 323 323 324 323 323 322 323 324 325 327 326 327 329 329 335 336 340 342 343 343 345 345
309 308 308 306 308 316 310 314 309 311 318 318 317 316 317 317 317 319 319 322 324 322 322 323 323 323 322 322 322 323 323 324 325 325 325 326 329 334 340 344 345 344 344 344 344
308 308 307 307 314 313 311 311 309 309 321 320 318 319 318 318 319 317 319 323 324 323 324 324 323 321 322 322 323 324 324 323 323 324 326 327 332 337 342 346 344 341 341 341 344
309 308 307 308 315 318 310 310 308 316 320 319 318 316 317 319 318 318 318 322 325 324 324 324 325 323 322 322 322 323 323 323 323 324 325 327 328 341 342 347 345 341 339 339 340
310 309 307 311 313 317 316 308 312 320 319 319 318 317 318 318 318 319 317 321 323 325 325 324 323 323 323 323 322 323 324 325 324 325 327 327 327 344 346 350 345 341 339 340 345
308 311 308 307 316 315 315 310 318 319 318 318 320 319 318 318 319 319 319 322 325 327 326 324 325 323 323 323 323 326 327 328 326 326 328 331 328 352 349 345 345 341 339 343 344
306 308 311 308 311 315 316 313 319 319 318 318 319 321 320 318 319 320 320 322 324 325 326 326 326 324 324 325 326 327 329 329 330 330 329 331 335 351 346 345 342 338 342 344 343
305 308 312 313 308 316 317 314 316 318 320 319 320 320 321 319 319 321 320 322 323 325 326 326 326 325 325 325 327 328 329 329 331 330 330 334 348 350 347 345 339 341 343 343 342
310 311 312 313 314 316 317 316 314 315 319 321 321 321 323 320 318 322 322 322 323 325 326 326 327 325 324 325 326 327 327 328 329 330 330 337 343 342 348 346 342 344 345 343 342
311 314 312 313 313 314 317 316 316 312 312 321 322 321 322 322 319 321 323 323 324 325 326 327 328 327 325 326 327 327 328 328 329 331 330 335 337 343 345 344 346 344 343 342 342
311 314 311 313 313 313 314 314 313 315 312 315 320 321 322 321 322 320 322 323 324 325 326 327 329 330 326 328 328 328 327 329 329 331 328 332 344 342 346 346 345 344 342 342 342
312 312 311 312 314 313 313 313 313 314 316 316 320 321 321 321 323 322 322 323 323 325 327 328 329 332 332 331 329 328 328 329 333 333 333 329 341 345 345 345 344 343 341 340 340
311 312 311 310 310 311 312 312 314 313 314 315 319 319 321 322 322 324 323 325 322 325 324 327 330 331 330 329 329 331 329 329 331 330 329 330 347 348 348 347 343 341 339 339 338
310 312 311 312 311 312 312 312 313 314 314 315 315 315 319 322 324 325 324 325 324 324 326 328 330 329 332 331 330 330 329 328 329 329 329 330 339 346 347 346 342 340 338 337 336
312 311 309 312 312 312 312 313 313 313 314 316 316 317 319 321 321 321 322 327 329 327 326 328 329 329 333 333 333 332 330 329 330 332 332 335 340 344 343 341 340 340 337 336 334
311 311 310 310 312 313 314 313 313 314 313 314 316 315 315 317 317 318 320 322 327 330 328 330 331 332 332 334 335 336 336 335 339 340 337 339 344 344 342 340 339 335 333 331 331
Wind_Speed
18 20 18 19 20 19 19 19 20 20 20 22 23 24 26 26 15 9 4 0 7 10 16 14 10 8 9 7 5 3 6 1 4 2 7 5 2 2 3 2 5 6 3 9 22
20 21 22 20 21 21 21 20 20 20 21 22 23 23 25 26 7 4 4 3 5 10 15 14 12 11 12 9 6 8 7 3 3 5 5 3 6 6 6 7 6 6 5 15 23
21 21 22 22 22 22 22 21 20 20 21 21 22 22 23 24 4 2 5 3 6 8 9 12 11 11 12 9 9 5 7 4 4 2 8 8 10 6 9 4 4 9 13 18 21
21 23 22 23 23 23 22 22 21 20 21 21 21 21 21 16 3 2 4 4 6 8 10 9 11 13 13 10 10 8 7 6 2 5 8 12 15 11 8 3 5 5 14 19 21
23 23 24 24 22 22 22 22 21 21 21 20 20 21 20 13 7 4 2 4 7 7 9 11 12 14 12 12 8 12 6 9 9 11 13 13 14 9 4 2 4 10 14 16 16
22 23 25 25 24 24 22 21 21 20 20 20 19 18 15 15 9 5 1 5 7 9 9 11 8 11 11 9 13 5 13 11 9 11 12 12 11 3 3 6 9 11 12 13 16
22 24 25 26 24 24 24 23 21 20 20 19 18 17 14 16 12 9 7 4 8 8 9 10 7 11 3 10 8 9 10 12 12 11 8 8 11 7 5 7 9 10 11 13 15
18 20 21 23 25 24 24 23 22 21 19 17 16 14 11 12 15 16 9 8 7 8 8 10 6 9 9 1 6 12 11 12 12 7 8 6 3 12 4 6 9 10 12 13 16
18 19 20 21 22 23 22 22 20 19 17 15 11 7 13 11 9 7 8 8 10 8 8 10 9 9 9 11 9 10 13 18 11 7 4 10 5 9 3 3 8 9 9 11 15
18 18 18 19 18 20 20 18 15 14 12 10 12 6 16 6 6 7 6 12 9 14 11 12 11 10 11 12 13 13 15 8 11 8 11 12 9 2 4 5 5 5 9 9 9
17 17 17 19 15 15 16 9 7 6 7 14 2 10 1 6 6 7 9 14 11 17 14 18 11 15 15 15 13 6 10 11 11 7 5 6 5 4 7 7 5 4 5 8 10
17 16 16 14 13 9 8 2 1 3 11 16 23 24 22 8 6 13 12 17 16 16 18 10 17 14 5 7 11 12 13 14 6 5 8 6 8 4 8 11 11 10 6 5 8
18 16 14 13 10 6 2 1 2 5 8 13 23 26 25 21 19 17 19 23 19 19 18 16 4 13 12 12 13 13 14 13 10 7 8 7 11 8 8 10 10 12 8 4 4
17 15 12 6 6 4 2 2 5 7 6 7 8 10 18 16 15 27 23 20 14 19 18 16 13 6 16 16 14 14 12 9 11 10 11 11 12 12 8 9 12 13 13 11 8
14 14 11 4 2 3 2 2 5 1 6 7 9 5 8 23 9 25 26 22 18 15 15 14 13 15 14 15 13 10 2 11 13 13 13 12 9 9 9 6 10 12 14 13 12
11 11 10 6 2 4 6 4 2 6 8 5 8 11 12 22 11 20 31 22 20 16 15 12 7 14 14 10 11 6 7 6 8 10 10 17 11 7 4 5 8 11 13 14 15
9 8 8 5 1 4 4 2 6 8 4 7 6 9 15 13 17 17 26 25 16 18 15 17 13 10 10 14 13 12 12 8 9 8 6 7 8 11 9 8 8 10 13 14 16
10 8 9 7 4 3 2 6 11 2 15 3 5 5 12 12 19 20 26 25 24 19 13 17 15 20 15 15 14 18 16 9 11 11 9 7 7 8 9 7 9 11 12 14 16
10 9 6 5 5 2 9 11 9 12 9 10 13 12 10 14 10 17 23 25 25 21 10 17 12 22 14 16 15 15 14 13 4 1 6 8 7 7 8 8 10 11 14 15 15
4 5 4 4 7 6 6 16 16 4 12 12 12 2 7 16 13 19 20 25 25 22 15 8 12 13 18 12 12 9 16 10 9 9 11 6 13 10 13 10 10 10 13 12 12
2 3 3 3 11 9 10 14 17 17 10 8 10 9 3 6 12 20 20 10 25 24 18 8 9 10 17 15 16 9 10 10 5 4 8 7 9 13 12 11 11 11 9 10 11
1 2 3 5 7 7 9 7 9 18 15 10 12 8 6 7 7 9 18 10 24 25 22 12 7 14 21 8 6 18 15 16 9 10 7 7 7 11 12 13 12 11 9 9 10
0 1 1 6 5 8 12 12 19 18 22 9 8 4 8 8 3 5 9 13 21 22 20 13 6 10 9 8 7 11 7 7 3 4 7 9 7 13 14 13 10 11 9 8 8
2 2 3 6 7 5 9 13 17 18 25 21 9 11 12 10 4 2 7 3 10 23 21 16 5 12 11 15 17 13 12 12 12 8 9 10 19 17 16 12 12 10 8 6 7
3 2 2 2 8 12 11 11 17 18 22 20 18 17 15 8 6 9 9 4 6 12 17 13 9 10 3 5 8 13 15 14 15 14 9 5 13 19 15 13 13 10 8 5 6
3 3 1 8 10 10 12 12 19 17 20 21 20 12 9 9 7 11 12 7 5 8 15 15 11 9 5 5 10 8 8 10 6 7 4 6 10 18 17 16 12 9 5 5 7
5 5 1 5 7 7 10 16 13 16 17 23 15 17 20 17 19 18 17 18 14 6 17 15 9 12 10 9 11 10 9 8 7 2 7 10 13 17 15 14 11 8 7 5 4
Wind_Direction
298 299 304 305 310 313 317 319 320 326 329 331 337 343 340 342 355 44 41 142 194 182 181 178 175 183 190 206 222 259 249 206 106 129 100 116 318 55 342 171 205 184 112 138 165
293 294 299 302 302 305 308 311 312 318 323 326 331 339 339 339 360 45 61 62 147 165 178 183 191 190 199 203 205 241 262 103 58 77 30 339 311 336 249 187 191 169 140 148 161
292 291 294 297 298 298 301 303 305 311 316 321 326 333 337 340 317 91 42 109 142 165 178 198 206 203 224 206 194 196 256 131 171 306 319 314 302 332 268 262 223 197 173 162 169
293 294 292 294 295 297 298 300 301 305 309 314 320 327 333 342 333 306 357 144 152 150 173 184 195 208 227 212 197 231 237 232 229 298 294 309 321 308 280 351 28 148 168 167 175
291 290 291 292 295 296 297 298 300 303 302 307 313 322 331 312 283 270 286 175 175 174 187 193 212 217 226 222 206 234 224 244 252 282 290 304 293 298 286 159 129 146 158 169 179
288 287 288 289 294 296 297 298 298 299 299 299 305 314 322 290 271 225 168 183 192 191 204 200 215 217 261 234 222 191 241 250 262 272 282 285 305 273 108 156 150 153 161 171 180
292 288 286 289 290 293 294 297 299 299 295 295 299 305 293 268 269 253 220 213 205 198 203 205 215 200 208 222 222 230 243 223 235 255 277 298 261 215 129 164 169 173 171 175 181
302 297 290 284 289 289 292 296 300 297 296 294 292 297 272 264 268 265 238 223 208 195 192 193 194 211 227 224 207 226 229 237 215 218 226 247 170 88 117 187 202 196 183 180 185
315 307 301 294 289 293 293 294 301 299 292 286 290 263 268 258 243 214 206 208 188 176 174 170 185 219 198 220 209 209 233 213 173 202 212 228 278 99 72 245 242 204 205 199 191
314 313 312 301 299 293 298 303 304 297 282 272 249 255 237 226 185 191 211 171 169 166 160 178 200 212 216 210 219 211 221 216 228 173 218 204 253 314 12 311 299 249 217 218 211
317 314 314 317 310 299 310 341 282 244 238 232 255 233 199 205 221 200 184 180 181 181 189 193 207 215 211 217 253 272 243 243 204 124 246 217 249 10 5 5 349 302 263 227 219
330 318 314 322 312 317 344 331 54 285 293 259 249 246 244 257 255 207 181 184 193 200 201 178 220 220 241 205 219 224 228 226 207 209 259 185 245 80 36 44 33 18 344 260 226
334 329 319 319 319 338 354 207 306 343 266 269 239 238 235 222 229 212 193 202 202 207 197 213 191 201 209 202 214 219 231 231 240 165 226 257 233 184 98 69 42 29 13 360 286
336 333 330 316 4 351 27 262 332 327 274 222 205 238 206 199 224 213 201 193 206 208 201 226 155 192 208 220 216 225 211 247 236 229 237 192 249 165 148 89 49 32 24 19 18
334 337 329 297 215 23 257 289 321 295 270 109 149 160 186 191 151 197 197 203 209 203 189 200 207 204 201 217 206 242 174 236 229 227 246 206 240 133 159 74 43 32 28 28 34
330 338 330 310 318 278 270 300 319 223 241 173 155 181 175 210 213 159 184 201 216 200 212 212 198 213 206 185 202 190 192 186 215 220 219 232 224 103 101 57 53 43 38 38 46
313 320 317 290 242 312 303 253 209 243 74 175 207 186 207 183 207 183 180 192 189 194 200 214 185 191 218 190 181 200 189 185 201 199 238 147 208 70 100 77 49 50 55 53 47
302 302 300 298 262 188 339 226 233 5 244 35 283 243 212 193 208 194 187 191 207 201 190 200 204 203 186 218 187 202 203 232 210 206 163 161 196 118 103 89 70 73 72 58 50
309 298 284 281 241 190 211 213 244 270 348 299 289 254 200 201 200 193 199 198 195 196 212 196 222 184 207 202 223 184 221 247 269 359 215 139 79 132 154 111 93 86 75 59 53
316 321 287 264 191 195 228 237 220 256 322 322 275 325 261 192 201 197 193 203 192 199 203 195 204 192 186 196 219 244 204 201 229 177 219 172 175 148 171 138 123 103 78 68 65
325 273 360 157 156 208 234 232 235 248 283 308 331 300 328 324 228 197 187 184 189 193 201 172 233 173 168 203 188 188 208 231 253 294 228 172 204 119 140 140 124 97 88 78 74
92 225 28 157 219 231 246 243 268 250 245 264 295 306 311 330 249 240 211 177 186 190 194 179 229 172 199 176 288 206 211 200 217 180 249 316 106 137 137 130 118 115 99 83 77
261 52 107 178 236 232 261 267 243 248 242 247 252 291 320 324 281 246 234 193 191 187 191 170 211 177 160 169 185 215 211 210 241 300 172 253 143 153 140 129 136 128 112 94 83
269 225 207 196 243 308 299 256 249 232 254 244 252 281 282 325 334 246 190 76 218 188 179 179 190 235 201 197 186 188 195 204 209 227 235 232 133 166 154 151 139 127 110 96 79
230 251 281 207 238 236 252 283 258 237 236 235 239 249 267 296 319 55 23 326 177 188 177 192 205 215 360 125 184 203 202 201 220 232 241 208 169 173 157 158 149 132 115 93 65
277 273 285 286 279 256 230 244 249 232 239 232 236 258 236 244 302 321 332 340 288 189 198 206 213 207 161 182 170 166 175 186 190 156 156 151 115 142 139 139 148 143 132 90 51
228 261 268 265 263 229 231 232 255 261 245 238 256 233 251 267 290 298 287 274 263 293 194 185 180 196 172 180 163 164 153 149 122 144 161 163 149 141 154 161 156 129 100 93 64